Flag for Switzerland Weather past 2 weeks in Basel, Basel-Stadt, Switzerland

Now
35 °F

Overcast.


Feels Like: 35 °F
Forecast: 33 / 42 °F
Wind: No wind

Location: Bale-Mulhouse

Current Time: Jan 29, 2015 at 8:05:19 AM

Latest Report: Jan 29, 2015 at 7:00 AM


Visibility: 38 mi

Pressure: 29.66 "Hg

Humidity: 86%

Dew point: 31 °F

Location of BaselLocation

Historic Weather in Basel — Graph

°F

Basel temperature yesterday

Maximum temperature yesterday: 44 °F (at 11:00 PM)
Minimum temperature yesterday: 29 °F (at 3:00 AM)
Average temperature yesterday: 36 °F

Past Weeks' High & Low Weather Summary

 TemperatureHumidityPressure
High48 °F (Jan 15, 2:00 PM)98% (Jan 20, 7:00 AM)30.49 "Hg (Jan 20, 7:00 AM)
Low27 °F (Jan 18, 6:00 AM)66% (Jan 14, 2:00 PM)29.66 "Hg (Jan 29, 12:00 AM)
Average36 °F89%30.06 "Hg
* Reported Jan 14 6:00 AM — Jan 29 6:00 AM, Basel, Weather by CustomWeather, © 2014

Note: Actual official high and low records may vary slightly from our data, if they occured in-between our weather recording intervals... More about our weather records

Advertising

Basel weather history for previous 24 hours

 ConditionsComfort  
Time TempWeatherWind HumidityBarometerVisibility
6:00 AM
Jan 29
36 °FOvercast.8 mph87%29.68 "Hg19 mi
5:00 AM35 °FLight rain. Overcast.8 mph90%29.70 "Hg9 mi
3:00 AM36 °FLight rain. Overcast.13 mph91%29.72 "Hg7 mi
2:00 AM39 °FLight rain. Overcast.15 mph86%29.69 "Hg22 mi
1:00 AM43 °FHeavy rain. Overcast.13 mph86%29.66 "Hg11 mi
12:00 AM45 °FOvercast.15 mph77%29.66 "Hg37 mi
11:00 PM
Jan 28
44 °FLight rain. Overcast.12 mph82%29.69 "Hg12 mi
10:00 PM41 °FOvercast.7 mph77%29.72 "Hg19 mi
9:00 PM40 °FOvercast.6 mph75%29.76 "Hg19 mi
8:00 PM40 °FOvercast.5 mph75%29.81 "Hg19 mi
7:00 PM40 °FOvercast.3 mph72%29.85 "Hg19 mi
6:00 PM40 °FOvercast.7 mph71%29.89 "Hg25 mi
5:00 PM41 °FLight rain. Overcast.14 mph72%29.94 "Hg25 mi
4:00 PM42 °FOvercast.10 mph67%29.97 "Hg19 mi
3:00 PM42 °FOvercast.8 mph68%29.99 "Hg34 mi
2:00 PM40 °FOvercast.2 mph70%30.05 "Hg16 mi
1:00 PM40 °FOvercast.3 mph72%30.10 "Hg16 mi
12:00 PM39 °FOvercast.3 mph75%30.14 "Hg12 mi
11:00 AM37 °FOvercast.5 mph82%30.17 "Hg12 mi
10:00 AM33 °FOvercast.3 mph92%30.19 "Hg9 mi
9:00 AM33 °FOvercast.5 mph90%30.21 "Hg9 mi
8:00 AM32 °FOvercast.6 mph91%30.21 "Hg9 mi
Weather by CustomWeather, © 2014

See weather overviewHow to use our weather pages